Location: Canazei
(46.4667°N, 11.7667°E)
Time: 18:20:45
(UTC+00:00)

Cosmos 2366 rocket - Pass Details

Date: 21 April 2021
Orbit: 954 x 998 km, 82.9° (Epoch: 11 May)

Event Time Altitude Azimuth Distance (km) Brightness Sun altitude
Rises 01:06:19 0° 347° (NNW) 3,647 7.6 -26.2°
Reaches altitude 10° 01:08:52 10° 343° (NNW) 2,695 6.8 -26.0°
Maximum altitude 01:14:49 54° 268° (W) 1,154 4.1 -25.5°
Enters shadow 01:15:08 53° 257° (WSW) 1,161 4.1 -25.4°
